Location: Unspecified
(0.0000°N, 1.0000°E)
Time: 21:31:14
(UTC+02:00)

Daily predictions for brighter satellites

Satellite Brightness Start Highest point End
(mag) Time Altitude Azimuth Time Altitude Azimuth Time Altitude Azimuth
CZ-3B Rocket 4.1 19:53:41 10° WNW 19:59:24 69° NNE 20:46:24 11° ESE
CZ-3B Rocket 4.1 19:53:41 10° WNW 19:59:25 69° NNE 20:46:22 11° ESE
CZ-3B Rocket 4.1 19:53:41 10° WNW 19:59:25 69° NNE 20:46:23 11° ESE
Centaur AC-42 4.3 20:15:38 10° SSW 20:17:12 12° S 20:19:07 10° SSE
Centaur D AC-28 3.9 20:12:45 10° SW 20:19:57 19° S 20:23:25 10° SE
Cosmos 1812 4.1 20:17:17 10° NE 20:20:02 19° E 20:22:47 10° SE
Cosmos 1655 Rocket 4.4 20:14:22 10° SSE 20:20:09 40° E 20:25:56 10° NNE
PSLV R/B 4.4 20:18:42 10° SSW 20:21:15 23° SE 20:23:45 10° E
Genesis I 4.2 20:17:29 10° NW 20:21:20 51° WSW 20:25:10 10° S
Meteor 1-20 Rocket 4.5 20:18:05 10° S 20:23:46 78° W 20:29:18 10° N
Cosmos 2360 Rocket 2.9 20:19:13 10° SSE 20:24:12 32° ESE 20:29:07 10° NE
COSMOS 2428 4.3 20:29:28 10° SE 20:31:57 13° ESE 20:34:26 10° E
CZ-4 R/B 3.9 20:33:30 10° SSW 20:36:35 23° WSW 20:39:39 10° NW
Okean 2 Rocket 3.4 20:33:06 10° S 20:37:33 74° W 20:42:01 10° N
ISS -1.0 20:38:01 10° W 20:40:06 16° SW 20:42:11 10° SSW
Cosmos 1461 3.1 20:35:43 10° NNW 20:40:20 68° ENE 20:45:01 10° SSE
Iridium 30 4.2 20:41:20 10° SSE 20:43:44 40° E 20:46:32 10° NNE
Cosmos 2082 3.8 20:38:11 10° NNW 20:43:52 81° WSW 20:49:31 10° SSE
Cosmos 2227 Rocket 2.8 20:39:33 10° NNW 20:45:06 60° WSW 20:50:41 10° S
SJ-6B 4.2 20:45:17 16° ESE 20:46:51 20° ENE 20:49:50 10° NNE
CZ-4C R/B 3.2 20:41:13 10° N 20:49:01 55° ENE 20:56:47 10° SE
BLOCK DM-SL R/B 3.2 20:20:30 10° W 20:52:16 89° S 20:55:36 20° E
Cosmos 1441 Rocket 3.4 20:49:51 10° N 20:53:28 45° E 20:57:08 10° SSE
Cosmos 407 Rocket 4.0 20:49:14 10° NNE 20:54:03 36° ENE 20:57:58 14° SE
SeaSat 1 2.4 20:50:04 10° NNE 20:54:54 59° ESE 20:59:44 10° S
FREGAT/IRIS 3.1 20:54:06 23° SE 20:55:28 37° E 20:58:16 10° N
ARIANE 5 R/B 2.3 20:55:10 10° WSW 20:59:45 31° S 21:00:55 23° SE
Cosmos 1190 Rocket 4.1 20:56:32 10° N 21:01:41 52° ENE 21:06:31 12° SSE
Intercosmos 25 Rocket 3.9 21:00:11 10° N 21:04:08 83° W 21:10:27 10° S
Cosmos 405 Rocket 3.4 21:00:58 10° NNW 21:04:52 60° W 21:08:53 10° S
BLOCK DM-SL R/B 4.1 20:29:40 10° W 21:05:46 89° S 21:08:42 27° E
Centaur AC-112 4.1 20:43:24 10° WSW 21:06:34 67° SSE 21:09:24 27° E
Cosmos 2266 Rocket 4.2 21:03:08 10° SSE 21:08:56 44° E 21:14:38 10° NNE
Hubble Space Telescope 2.2 21:06:36 10° SSW 21:09:39 22° SSE 21:09:39 22° SSE
Cosmos 1300 Rocket 3.5 21:06:04 10° S 21:10:20 58° E 21:14:33 10° NNE
Cosmos 1818 3.4 21:07:24 10° SSW 21:12:45 71° ESE 21:18:07 10° NNE
Okean 1 Rocket 4.1 21:14:20 28° NE 21:14:20 28° NE 21:16:50 10° NNE
Cosmos 1536 2.7 21:12:35 10° S 21:16:39 71° E 21:20:41 10° N
FENGYUN 3A 3.8 21:12:03 10° S 21:17:27 77° WSW 21:22:47 10° NNW
Cosmos 676 Rocket 4.4 21:14:05 10° N 21:19:04 42° ENE 21:19:53 39° ESE
ALOS 3.1 21:19:43 10° S 21:24:14 50° WSW 21:28:44 10° NNW
H-2A R/B 2.6 21:27:28 63° SSE 21:28:03 89° ENE 21:31:52 10° N
GPS 2-15 Rocket1 4.5 21:25:21 10° SW 21:29:00 26° S 21:29:00 26° S
Cosmos 1553 Rocket 4.0 21:24:41 10° NNE 21:30:30 50° E 21:31:27 46° ESE
S3M 4.2 21:24:36 10° NNE 21:30:38 46° E 21:31:20 44° ESE
Okean 1 3.4 21:27:22 10° N 21:31:21 75° W 21:32:37 42° S
Cosmos 2297 Rocket 4.5 21:29:44 10° NW 21:34:01 22° WSW 21:38:20 10° SSW
OAO 3 Rocket 3.0 21:31:31 10° NW 21:36:13 70° NE 21:36:13 70° NE
NOSS 3-4 (A) 3.3 21:30:51 10° SSW 21:37:18 68° ESE 21:41:07 25° NE
NOSS 3-4 (C) 3.4 21:30:58 10° SSW 21:37:24 67° ESE 21:40:52 28° NE
Cosmos 1954 Rocket 4.2 21:32:43 10° N 21:37:13 51° NE 21:37:13 51° NE
Resurs 01 Rocket 3.7 21:41:42 16° NNE 21:41:42 16° NNE 21:42:44 10° N
ARIANE 5 R/B 3.5 20:51:42 10° W 21:39:18 70° S 21:41:11 48° ESE
COSMOS 2428 3.7 22:10:33 10° SW 22:15:57 43° WNW 22:21:21 10° N
ARIANE 5 DEB (SYLDA) 4.5 21:36:47 10° W 22:20:05 68° SSW 22:20:47 66° SSE
Milstar 3 4.2 22:14:45 10° NW 22:31:23 50° NNE 22:32:09 50° NNE
Ariane H10+ 3.4 22:20:43 10° W 22:37:25 67° NW 22:37:25 67° NW
